Cortland, IL

4:24 PM CST on February 08, 2016 (GMT -0600)
De Kalb Taylor Municipal

Weather History for KDKB - October, 2012

Change the Weather History Date:

Monday, October 8, 2012

  Actual Average (KARR) Record (KARR)
Temperature  
Mean Temperature 44 °F 53 °F  
Max Temperature 60 °F 65 °F 87 °F (1997)
Min Temperature 27 °F 41 °F 24 °F (2000)
Degree Days  
Heating Degree Days 22 12  
Month to date heating degree days 88  
Since 1 July heating degree days 241  
Cooling Degree Days 0 1  
Month to date cooling degree days 8  
Year to date cooling degree days 655  
Moisture  
Dew Point 26 °F    
Average Humidity 52    
Maximum Humidity 84    
Minimum Humidity 25    
Precipitation  
Precipitation 0.00 in 0.09 in 1.28 in (2004)
Month to date precipitation 0.83  
Year to date precipitation 29.47  
Sea Level Pressure  
Sea Level Pressure 30.06 in    
Wind  
Wind Speed 11 mph (SSW)    
Max Wind Speed 24 mph    
Max Gust Speed 33 mph    
Visibility 10 miles    
Events      
T = Trace of Precipitation, MM = Missing Value Source: NWS Daily Summary

Daily Weather History Graph

Daily Weather History Graph

Search for Another Location

Airport or City:

Trip Planner

Search our weather history database for the weather conditions in past years. The results will help you decide how hot, cold, wet, or windy it might be!

Date:

Astronomy

Oct. 08, 2012 Rise Set
Actual Time 6:59 AM CDT 6:23 PM CDT
Civil Twilight 6:32 AM CDT 6:51 PM CDT
Nautical Twilight 5:59 AM CDT 7:23 PM CDT
Astronomical Twilight 5:27 AM CDT 7:56 PM CDT
Moon No Moon Rise 2:18 PM CDT
Length of Visible Light 12h 19m
Length of Day
11h 23m
Last Quarter, 46% of the Moon is Illuminated
Oct 8
Last Quarter
Oct 15
New
Oct 21
First Quarter
Oct 29
Full
Nov 6
Last Quarter

Hourly Weather History & Observations

Time (CDT) Temp. Windchill Dew Point Humidity Pressure Visibility Wind Dir Wind Speed Gust Speed Precip Events Conditions
12:15 AM 34.2 °F 30.0 °F 21.9 °F 61% 30.13 in 10.0 mi SSW 4.6 mph - N/A   Clear
12:55 AM 31.3 °F 25.6 °F 22.1 °F 69% 30.13 in 10.0 mi SSW 5.8 mph - N/A   Clear
1:15 AM 29.7 °F 22.8 °F 21.7 °F 72% 30.13 in 10.0 mi SSW 6.9 mph - N/A   Clear
1:35 AM 29.8 °F 23.9 °F 22.1 °F 73% 30.13 in 10.0 mi SSW 5.8 mph - N/A   Clear
1:55 AM 28.0 °F 20.8 °F 21.6 °F 77% 30.13 in 10.0 mi South 6.9 mph - N/A   Clear
2:15 AM 27.9 °F 21.5 °F 21.6 °F 77% 30.13 in 10.0 mi South 5.8 mph - N/A   Clear
2:35 AM 28.9 °F 21.9 °F 22.5 °F 77% 30.13 in 10.0 mi SSW 6.9 mph - N/A   Clear
2:55 AM 30.4 °F 23.6 °F 23.4 °F 75% 30.12 in 10.0 mi SSW 6.9 mph - N/A   Clear
3:15 AM 31.5 °F 23.5 °F 24.8 °F 76% 30.11 in 10.0 mi SSW 9.2 mph - N/A   Clear
3:35 AM 32.2 °F 24.4 °F 25.7 °F 77% 30.11 in 10.0 mi SSW 9.2 mph - N/A   Clear
4:15 AM 29.3 °F 22.3 °F 23.7 °F 80% 30.11 in 10.0 mi South 6.9 mph - N/A   Clear
4:35 AM 28.2 °F 20.2 °F 23.0 °F 81% 30.12 in 10.0 mi South 8.1 mph - N/A   Clear
4:55 AM 28.9 °F 20.4 °F 24.3 °F 83% 30.12 in 10.0 mi South 9.2 mph - N/A   Clear
5:15 AM 29.1 °F 21.3 °F 24.3 °F 82% 30.12 in 10.0 mi South 8.1 mph - N/A   Clear
5:35 AM 29.1 °F 21.3 °F 24.3 °F 82% 30.12 in 10.0 mi South 8.1 mph - N/A   Clear
5:55 AM 29.1 °F 20.6 °F 24.3 °F 82% 30.12 in 10.0 mi South 9.2 mph - N/A   Clear
6:15 AM 29.1 °F 20.6 °F 24.4 °F 83% 30.12 in 10.0 mi South 9.2 mph - N/A   Clear
6:35 AM 28.4 °F 19.7 °F 24.3 °F 84% 30.12 in 10.0 mi South 9.2 mph - N/A   Clear
6:55 AM 28.8 °F 19.5 °F 24.6 °F 84% 30.12 in 10.0 mi South 10.4 mph - N/A   Clear
7:15 AM 28.2 °F 20.2 °F 24.1 °F 84% 30.13 in 10.0 mi South 8.1 mph - N/A   Clear
7:35 AM 29.8 °F 22.2 °F 25.5 °F 84% 30.13 in 10.0 mi South 8.1 mph - N/A   Clear
7:55 AM 31.8 °F 24.6 °F 27.1 °F 83% 30.13 in 10.0 mi South 8.1 mph - N/A   Clear
8:35 AM 36.1 °F 28.2 °F 30.2 °F 79% 30.12 in 10.0 mi South 11.5 mph - N/A   Clear
8:55 AM 39.0 °F 32.3 °F 31.8 °F 75% 30.13 in 10.0 mi South 10.4 mph - N/A   Clear
9:15 AM 42.6 °F 36.3 °F 32.0 °F 66% 30.13 in 10.0 mi South 11.5 mph - N/A   Clear
9:35 AM 46.4 °F 40.4 °F 32.0 °F 57% 30.12 in 10.0 mi South 13.8 mph 18.4 mph N/A   Clear
9:55 AM 48.7 °F - 31.1 °F 51% 30.12 in 10.0 mi SSW 13.8 mph 19.6 mph N/A   Clear
10:15 AM 50.4 °F - 30.4 °F 46% 30.11 in 10.0 mi SSW 18.4 mph - N/A   Clear
10:35 AM 52.9 °F - 30.9 °F 43% 30.11 in 10.0 mi SSW 15.0 mph 21.9 mph N/A   Clear
10:55 AM 54.1 °F - 30.0 °F 40% 30.11 in 10.0 mi SSW 20.7 mph - N/A   Clear
11:15 AM 55.6 °F - 28.8 °F 36% 30.10 in 10.0 mi SSW 20.7 mph 27.6 mph N/A   Clear
11:35 AM 56.7 °F - 28.4 °F 34% 30.09 in 10.0 mi SSW 19.6 mph 24.2 mph N/A   Clear
11:55 AM 58.1 °F - 26.8 °F 30% 30.09 in 10.0 mi SSW 20.7 mph 24.2 mph N/A   Clear
12:15 PM 58.1 °F - 25.7 °F 29% 30.08 in 10.0 mi SSW 20.7 mph 28.8 mph N/A   Clear
12:35 PM 59.0 °F - 24.8 °F 27% 30.07 in 10.0 mi South 21.9 mph 28.8 mph N/A   Clear
12:55 PM 59.0 °F - 23.0 °F 25% 30.06 in 10.0 mi SSW 24.2 mph 28.8 mph N/A   Clear
1:15 PM 59.2 °F - 23.5 °F 25% 30.05 in 10.0 mi SW 23.0 mph 27.6 mph N/A   Clear
1:35 PM 59.2 °F - 23.0 °F 25% 30.04 in 10.0 mi SSW 20.7 mph 28.8 mph N/A   Clear
1:55 PM 59.4 °F - 23.9 °F 26% 30.03 in 10.0 mi SSW 19.6 mph 33.4 mph N/A   Clear
2:15 PM 59.9 °F - 23.5 °F 25% 30.02 in 10.0 mi SW 19.6 mph 29.9 mph N/A   Clear
2:35 PM 60.1 °F - 25.0 °F 26% 30.01 in 10.0 mi SSW 19.6 mph 27.6 mph N/A   Clear
2:55 PM 60.8 °F - 24.8 °F 25% 30.01 in 10.0 mi SW 19.6 mph 26.5 mph N/A   Clear
3:15 PM 60.3 °F - 25.7 °F 27% 30.01 in 10.0 mi SSW 19.6 mph 27.6 mph N/A   Clear
3:35 PM 59.7 °F - 25.3 °F 27% 30.00 in 10.0 mi SSW 19.6 mph 27.6 mph N/A   Clear
3:55 PM 60.1 °F - 25.2 °F 26% 29.99 in 10.0 mi SSW 18.4 mph 31.1 mph N/A   Clear
4:15 PM 59.5 °F - 24.4 °F 26% 29.99 in 10.0 mi South 21.9 mph 27.6 mph N/A   Clear
4:35 PM 59.2 °F - 24.4 °F 26% 29.99 in 10.0 mi South 20.7 mph 31.1 mph N/A   Clear
4:55 PM 58.8 °F - 24.3 °F 27% 29.98 in 10.0 mi South 18.4 mph 25.3 mph N/A   Clear
5:15 PM 58.1 °F - 23.9 °F 27% 29.99 in 10.0 mi SSW 17.3 mph 26.5 mph N/A   Clear
5:35 PM 57.9 °F - 24.6 °F 28% 29.98 in 10.0 mi South 17.3 mph 23.0 mph N/A   Clear
5:55 PM 56.5 °F - 24.4 °F 29% 29.99 in 10.0 mi SSW 16.1 mph - N/A   Clear
6:15 PM 54.9 °F - 24.6 °F 31% 29.99 in 10.0 mi SSW 15.0 mph - N/A   Clear
6:35 PM 53.6 °F - 25.3 °F 34% 29.99 in 10.0 mi SSW 12.7 mph - N/A   Clear
6:55 PM 52.3 °F - 26.4 °F 37% 29.99 in 10.0 mi South 11.5 mph - N/A   Clear
7:15 PM 50.0 °F - 26.6 °F 40% 30.00 in 10.0 mi South 8.1 mph - N/A   Clear
7:35 PM 47.7 °F - 28.0 °F 47% 30.00 in 10.0 mi South 10.4 mph - N/A   Clear
7:55 PM 49.1 °F - 28.8 °F 45% 30.00 in 10.0 mi South 11.5 mph - N/A   Clear
8:35 PM 50.2 °F - 30.2 °F 46% 30.00 in 10.0 mi South 12.7 mph - N/A   Clear
8:55 PM 50.2 °F - 30.6 °F 47% 30.00 in 10.0 mi South 12.7 mph - N/A   Clear
9:15 PM 50.0 °F - 30.7 °F 48% 30.00 in 10.0 mi South 13.8 mph - N/A   Clear
9:35 PM 50.0 °F - 32.0 °F 50% 30.00 in 10.0 mi South 11.5 mph - N/A   Clear
9:55 PM 49.3 °F - 31.6 °F 51% 30.00 in 10.0 mi South 12.7 mph - N/A   Clear
10:15 PM 49.1 °F - 31.6 °F 51% 30.00 in 10.0 mi South 13.8 mph - N/A   Clear
10:35 PM 48.6 °F - 32.0 °F 53% 30.01 in 10.0 mi South 13.8 mph - N/A   Clear
11:15 PM 46.4 °F 41.1 °F 32.0 °F 57% 29.99 in 10.0 mi South 11.5 mph - N/A   Clear
11:35 PM 45.9 °F 40.0 °F 32.5 °F 60% 29.99 in 10.0 mi South 12.7 mph - N/A   Clear
11:55 PM 45.7 °F 40.6 °F 32.7 °F 61% 29.99 in 10.0 mi South 10.4 mph - N/A   Clear